When you browse on this site, cookies collect data to enhance your experience and personalize the content and advertising you see.
Visit our Privacy Policy to learn more. By continuing to use the site, you agree to this use of cookies and data.
  • Em Portugal
  • Lista de países
  • Para 7 dias
  • Temperatura da água
  • Mapas de satélite
  • Mapa do tempo
  • Widgets de tempo
  • user-avatar
    Iniciar Sessão

    Previsão horária em Charzowice

    Hoje, 24 Março, Domingo

    Tempo Temperatura Precipitação Vento Pressão Humidade
    00:00 +9°C° 0 mm 2 m/s 747 mmHg 65%
    01:00 +9°C° 0 mm 2 m/s 747 mmHg 76%
    02:00 +9°C° 0 mm 3 m/s 747 mmHg 81%
    03:00 +8°C° 0 mm 3 m/s 747 mmHg 85%
    04:00 +7°C° 0 mm 4 m/s 747 mmHg 89%
    05:00 +7°C° 0 mm 4 m/s 747 mmHg 88%
    06:00 +6°C° 0 mm 4 m/s 748 mmHg 86%
    07:00 +6°C° 0 mm 4 m/s 748 mmHg 81%
    08:00 +8°C° 0 mm 3 m/s 748 mmHg 74%
    09:00 +8°C° 0 mm 3 m/s 748 mmHg 67%
    10:00 +9°C° 0 mm 3 m/s 747 mmHg 59%
    11:00 +10°C° 0 mm 2 m/s 747 mmHg 53%
    12:00 +12°C° 0 mm 2 m/s 747 mmHg 47%
    13:00 +13°C° 0 mm 2 m/s 746 mmHg 40%
    14:00 +13°C° 0 mm 2 m/s 746 mmHg 39%
    15:00 +13°C° 0 mm 2 m/s 745 mmHg 37%
    16:00 +14°C° 0 mm 2 m/s 744 mmHg 36%
    17:00 +12°C° 0 mm 2 m/s 744 mmHg 39%
    18:00 +10°C° 0 mm 2 m/s 744 mmHg 41%
    19:00 +8°C° 0 mm 2 m/s 743 mmHg 44%
    20:00 +8°C° 0 mm 2 m/s 743 mmHg 44%
    21:00 +9°C° 0 mm 1 m/s 743 mmHg 45%
    22:00 +9°C° 0 mm 1 m/s 743 mmHg 45%
    23:00 +9°C° 0.1 mm 1 m/s 742 mmHg 48%

    Amanhã, 25 Março, Segunda-feira

    Tempo Temperatura Precipitação Vento Pressão Humidade
    00:00 +9°C° 0.1 mm 1 m/s 742 mmHg 51%
    01:00 +8°C° 0.1 mm 1 m/s 741 mmHg 54%
    02:00 +8°C° 0.3 mm 1 m/s 741 mmHg 59%
    03:00 +7°C° 0.3 mm 1 m/s 740 mmHg 64%
    04:00 +7°C° 0.3 mm 1 m/s 739 mmHg 69%
    05:00 +7°C° 0.1 mm 1 m/s 739 mmHg 71%
    06:00 +6°C° 0.1 mm 2 m/s 739 mmHg 72%
    07:00 +6°C° 0.1 mm 2 m/s 739 mmHg 73%
    08:00 +7°C° 0 mm 3 m/s 739 mmHg 68%
    09:00 +8°C° 0 mm 3 m/s 738 mmHg 62%
    10:00 +8°C° 0 mm 4 m/s 738 mmHg 57%
    11:00 +10°C° 0.3 mm 4 m/s 738 mmHg 52%
    12:00 +9°C° 0.3 mm 5 m/s 737 mmHg 47%
    13:00 +10°C° 0.3 mm 6 m/s 737 mmHg 42%
    14:00 +9°C° 0.1 mm 6 m/s 737 mmHg 44%
    15:00 +9°C° 0.1 mm 6 m/s 737 mmHg 46%
    16:00 +8°C° 0.1 mm 6 m/s 737 mmHg 48%
    17:00 +7°C° 0.1 mm 5 m/s 737 mmHg 53%
    18:00 +6°C° 0.1 mm 5 m/s 738 mmHg 59%
    19:00 +5°C° 0.1 mm 5 m/s 739 mmHg 64%
    20:00 +3°C° 0 mm 5 m/s 739 mmHg 66%
    21:00 +3°C° 0 mm 5 m/s 740 mmHg 69%
    22:00 +2°C° 0 mm 5 m/s 741 mmHg 71%
    23:00 +3°C° 0 mm 4 m/s 741 mmHg 74%

    Depois de amanhã, 26 Março, Terça-feira

    Tempo Temperatura Precipitação Vento Pressão Humidade
    00:00 +1°C° 0 mm 4 m/s 742 mmHg 77%
    01:00 +1°C° 0 mm 4 m/s 742 mmHg 81%
    02:00 +1°C° 0 mm 4 m/s 743 mmHg 83%
    03:00 0°C° 0 mm 4 m/s 743 mmHg 85%
    04:00 0°C° 0 mm 4 m/s 743 mmHg 88%
    05:00 0°C° 0 mm 4 m/s 744 mmHg 86%
    06:00 0°C° 0 mm 4 m/s 745 mmHg 85%
    07:00 0°C° 0 mm 5 m/s 745 mmHg 83%
    08:00 +1°C° 0 mm 5 m/s 745 mmHg 76%
    09:00 +2°C° 0 mm 6 m/s 746 mmHg 70%
    10:00 +3°C° 0 mm 6 m/s 746 mmHg 63%
    11:00 +5°C° 0 mm 6 m/s 745 mmHg 58%
    12:00 +6°C° 0 mm 7 m/s 745 mmHg 53%
    13:00 +8°C° 0 mm 7 m/s 745 mmHg 48%
    14:00 +8°C° 0 mm 7 m/s 744 mmHg 48%
    15:00 +7°C° 0 mm 8 m/s 744 mmHg 48%
    16:00 +7°C° 0 mm 8 m/s 744 mmHg 48%
    17:00 +6°C° 0 mm 8 m/s 744 mmHg 52%
    18:00 +5°C° 0 mm 8 m/s 744 mmHg 56%
    19:00 +4°C° 0 mm 8 m/s 745 mmHg 61%
    20:00 +3°C° 0 mm 7 m/s 745 mmHg 63%
    21:00 +3°C° 0 mm 6 m/s 746 mmHg 64%
    22:00 +2°C° 0 mm 5 m/s 747 mmHg 66%
    23:00 +3°C° 0.1 mm 4 m/s 747 mmHg 68%

    27 Março, Quarta-feira

    Tempo Temperatura Precipitação Vento Pressão Humidade
    00:00 +1°C° 0.1 mm 4 m/s 747 mmHg 69%
    01:00 +1°C° 0.1 mm 3 m/s 748 mmHg 70%
    02:00 +2°C° 0 mm 2 m/s 748 mmHg 70%
    03:00 +1°C° 0 mm 2 m/s 748 mmHg 70%
    04:00 +1°C° 0 mm 1 m/s 748 mmHg 69%
    05:00 +1°C° 0 mm 1 m/s 749 mmHg 65%
    06:00 +2°C° 0 mm 1 m/s 749 mmHg 60%
    07:00 +2°C° 0 mm 1 m/s 750 mmHg 56%
    08:00 +4°C° 0 mm 1 m/s 750 mmHg 53%
    09:00 +4°C° 0 mm 2 m/s 750 mmHg 51%
    10:00 +6°C° 0 mm 2 m/s 750 mmHg 48%
    11:00 +5°C° 0 mm 3 m/s 750 mmHg 47%
    12:00 +7°C° 0 mm 3 m/s 750 mmHg 46%
    13:00 +8°C° 0 mm 3 m/s 750 mmHg 45%
    14:00 +8°C° 0 mm 3 m/s 749 mmHg 45%
    15:00 +8°C° 0 mm 3 m/s 749 mmHg 44%
    16:00 +8°C° 0 mm 3 m/s 749 mmHg 44%
    17:00 +8°C° 0 mm 2 m/s 749 mmHg 48%
    18:00 +7°C° 0 mm 2 m/s 750 mmHg 52%
    19:00 +7°C° 0 mm 1 m/s 750 mmHg 56%
    20:00 +6°C° 0 mm 1 m/s 750 mmHg 59%
    21:00 +6°C° 0 mm 1 m/s 750 mmHg 62%
    22:00 +6°C° 0 mm 1 m/s 750 mmHg 66%
    23:00 +6°C° 0 mm 1 m/s 751 mmHg 69%

    28 Março, Quinta-feira

    Tempo Temperatura Precipitação Vento Pressão Humidade
    00:00 +5°C° 0 mm 2 m/s 751 mmHg 72%
    01:00 +5°C° 0 mm 2 m/s 751 mmHg 75%
    02:00 +4°C° 0 mm 2 m/s 751 mmHg 79%
    03:00 +4°C° 0 mm 2 m/s 751 mmHg 83%
    04:00 +3°C° 0 mm 2 m/s 751 mmHg 87%
    05:00 +4°C° 0 mm 2 m/s 751 mmHg 85%
    06:00 +4°C° 0 mm 2 m/s 751 mmHg 83%
    07:00 +6°C° 0 mm 1 m/s 752 mmHg 81%
    08:00 +7°C° 0 mm 1 m/s 752 mmHg 75%
    09:00 +9°C° 0 mm 1 m/s 752 mmHg 68%
    10:00 +10°C° 0 mm 1 m/s 752 mmHg 62%
    11:00 +11°C° 0 mm 1 m/s 752 mmHg 60%
    12:00 +11°C° 0 mm 1 m/s 752 mmHg 59%
    13:00 +11°C° 0 mm 1 m/s 752 mmHg 57%
    14:00 +12°C° 0 mm 1 m/s 752 mmHg 56%
    15:00 +12°C° 0 mm 1 m/s 752 mmHg 54%
    16:00 +12°C° 0 mm 1 m/s 752 mmHg 52%
    17:00 +11°C° 0 mm 1 m/s 752 mmHg 57%
    18:00 +10°C° 0 mm 1 m/s 752 mmHg 62%
    19:00 +9°C° 0 mm 1 m/s 753 mmHg 68%
    20:00 +8°C° 0 mm 1 m/s 753 mmHg 68%
    21:00 +8°C° 0 mm 1 m/s 753 mmHg 69%
    22:00 +8°C° 0 mm 1 m/s 754 mmHg 70%
    23:00 +8°C° 0 mm 1 m/s 754 mmHg 71%

    29 Março, Sexta-feira

    Tempo Temperatura Precipitação Vento Pressão Humidade
    00:00 +8°C° 0 mm 1 m/s 754 mmHg 71%
    01:00 +8°C° 0 mm 1 m/s 754 mmHg 72%
    02:00 +7°C° 0 mm 1 m/s 754 mmHg 75%
    03:00 +6°C° 0 mm 1 m/s 754 mmHg 78%
    04:00 +5°C° 0 mm 1 m/s 754 mmHg 81%
    05:00 +6°C° 0 mm 1 m/s 754 mmHg 79%
    06:00 +7°C° 0 mm 1 m/s 754 mmHg 77%
    07:00 +7°C° 0 mm 1 m/s 754 mmHg 74%
    08:00 +9°C° 0 mm 1 m/s 754 mmHg 69%
    09:00 +10°C° 0 mm 1 m/s 754 mmHg 63%
    10:00 +12°C° 0 mm 2 m/s 754 mmHg 58%
    11:00 +13°C° 0 mm 2 m/s 753 mmHg 54%
    12:00 +13°C° 0 mm 2 m/s 753 mmHg 51%
    13:00 +14°C° 0 mm 2 m/s 753 mmHg 47%
    14:00 +14°C° 0 mm 2 m/s 752 mmHg 46%
    15:00 +15°C° 0 mm 2 m/s 752 mmHg 45%
    16:00 +15°C° 0 mm 2 m/s 751 mmHg 44%
    17:00 +13°C° 0 mm 2 m/s 751 mmHg 50%
    18:00 +12°C° 0 mm 1 m/s 751 mmHg 55%
    19:00 +10°C° 0 mm 1 m/s 751 mmHg 60%
    20:00 +10°C° 0 mm 1 m/s 751 mmHg 63%
    21:00 +9°C° 0 mm 1 m/s 751 mmHg 65%
    22:00 +9°C° 0 mm 1 m/s 751 mmHg 68%
    23:00 +8°C° 0 mm 1 m/s 751 mmHg 70%
    Mostrar mais